Tracking 29042 objects as of 22-Jun-2024
HD Live streaming from Space Station
objects crossing your sky now

OBJECT A

Track OBJECT A now!
10-day predictions


NORAD ID: 49003
Int'l Code: 2021-062A
Perigee: 517.8 km
Apogee: 553.6 km
Inclination: 97.6 °
Period: 95.2 minutes
Semi major axis: 6906 km
RCS: Unknown
Launch date: July 3, 2021
Source: People's Republic of China (PRC)
Launch site: Taiyaun Space Center, China (TSC)
Your satellite tracking list
Your tracking list is empty




NASA's NSSDC Master Catalog

Two Line Element Set (TLE):
1 49003U 21061A   24173.92914194  .00004532  00000-0  26191-3 0  9998
2 49003  97.5940 247.5895 0025916 108.6938 251.7109 15.12517812163806
Source of the keplerian elements: AFSPC